SCP
0 0 0 0 0 0 0 0 0 0 0 0 0 0 0 0 0 0 -0 -0 -0 -0 -0 -0 -0 -0 0 0 0 0 0 0 0 0 0 -0 0 0 -0 0 0 0 0
0 0 0 0 0 0 0 0 0 0 0 0 0 0 0 0 0 0 0 0 0 0 0 0 -0 -0 -0 -0 0 0 0 0 0 0 0 0 0 -0 0 0 0 0 0
0 0 0 0 0 0 0 0 0 0 0 0 0 0 0 0 0 0 -0 -0 -0 -0 0 0 0 0 0 0 -0 -0 -0 0 0 0 0 0 0 0 -0 0 0 -0 0
0 0 0 0 0 0 0 0 0 0 0 0 0 0 0 0 0 -0 -0 0 0 0 0 0 0 0 0 0 0 0 0 -0 -0 0 0 0 0 0 0 0 0 0 0
0 0 0 0 0 0 0 0 0 0 0 0 0 0 0 0 0 0 0 0 0 0 0 0 0 0 0 0 0 0 0 0 0 0 0 0 -0 -0 -0 0 0 0 0
0 0 0 0 0 0 0 0 0 0 0 0 0 0 0 0 0 0 0 0 0 0 0 0 0 0 0 0 0 0 0 0 0 0 0 0 0 0 0 -0 -0 0 0
0 0 0 0 0 0 0 0 0 0 0 0 0 0 0 0 0 0 0 0 0 0 0 0 0 0 0 0 0 0 0 0 0 0 0 0 0 0 0 0 0 -0 0
0 0 0 0 0 0 0 0 0 0 0 0 0 0 0 0 -0 0 0 0 0 0 0 0 0 0 0 0 0 0 0 0 0 0 0 0 0 0 0 0 0 0 0
0 0 0 0 0 0 0 0 0 0 0 0 0 0 0 0 -0 0 0 0 0 0 0 0 0 0 0 0 0 0 0 0 0 0 0 0 0 0 0 0 0 0 0
0 0 0 0 0 0 0 0 0 0 0 0 0 0 0 0 0 0 0 0 0 0 0 0 0 0 0 0 0 0 0 0 0 0 0 0 0 0 0 0 0 0 0
0 0 0 0 0 0 0 0 0 0 0 0 0 0 0 0 0 -0 0 0 0 0 0 0 0 0 -0 -0 0 0 0 0 0 0 0 0 0 0 0 0 0 0 0
0 0 0 0 0 0 0 0 0 0 0 0 0 0 0 0 0 0 0 0 0 0 0 0 0 0 0 0 0 0 0 0 0 0 0 0 0 0 0 0 0 0 0
0 0 0 0 0 0 0 0 0 0 0 0 0 0 0 0 0 0 0 -0 0 0 0 0 0 0 -0 0 0 0 0 0 0 0 0 0 0 0 0 0 0 0 0
0 0 0 0 0 0 0 0 0 0 0 0 0 0 0 0 0 0 0 0 0 0 0 0 0 0 0 0 0 0 0 0 0 0 0 0 0 0 0 0 0 0 0
0 0 0 0 0 0 0 0 0 0 0 0 0 0 -0 -0 -0 -0 -0 0 0 0 0 0 0 0 0 0 0 0 0 0 0 0 0 0 0 0 0 0 0 0 0
0 0 0 0 0 0 0 0 0 0 0 0 -0 -0 0 -0 -0 -0 -0 -0 0 0 0 0 0 0 0 0 0 0 0 0 0 0 0 0 0 0 0 0 0 0 0
0 0 0 0 0 0 0 0 0 0 0 0 0 0 0 -0 -0 -0 0 0 0 0 0 0 0 0 0 0 0 0 0 0 0 0 0 0 0 0 0 0 0 0 -0
0 0 0 0 0 0 0 0 0 0 0 0 0 -0 0 0 0 0 0 0 0 0 0 0 0 0 0 0 0 0 0 0 0 0 0 0 0 0 0 0 0 0 0
0 0 0 0 0 0 0 0 0 0 0 0 0 0 0 0 0 0 0 0 0 0 0 0 0 0 0 0 0 0 0 0 0 0 0 0 0 0 0 0 0 0 0
0 0 0 0 0 0 0 0 0 0 0 0 0 0 0 0 0 0 0 0 0 0 0 0 0 0 0 0 0 0 0 0 0 0 0 0 0 0 0 0 0 0 0
0 0 0 0 0 0 0 0 0 0 0 0 0 0 -0 0 0 0 0 0 0 0 0 0 0 0 0 0 0 0 0 0 0 0 0 0 0 0 0 0 0 0 0
0 0 0 0 0 0 0 0 0 0 0 0 0 0 0 0 0 0 0 0 0 0 0 0 0 0 0 0 0 0 0 0 0 0 0 0 0 0 0 0 0 0 0
0 0 0 0 0 0 0 0 0 0 0 0 0 0 0 0 0 0 0 0 0 0 0 0 0 0 0 0 0 0 0 0 0 0 0 0 0 0 0 0 0 0 0
0 0 0 0 0 0 0 0 0 0 0 0 0 0 0 0 0 0 0 0 0 0 0 0 0 0 0 0 0 0 0 0 -0 -0 -0 -0 0 0 0 0 0 0 0
0 0 0 0 0 0 0 0 0 0 0 0 0 0 0 0 0 0 0 0 0 0 0 0 0 0 0 0 0 0 -0 -0 -0 -0 -0 0 0 0 0 0 0 0 0
0 0 0 0 0 0 0 0 0 0 0 0 0 0 0 0 0 0 0 0 0 0 0 0 0 0 0 0 0 0 0 -0 -0 0 -0 0 0 0 0 0 -0 -0 -0
Wind_Speed_500mb
9 15 20 23 26 29 30 33 36 38 42 47 51 55 59 63 68 75 82 89 96 101 101 102 101 95 92 87 81 80 83 81 93 103 99 98 95 92 90 83 79 76 76
16 20 25 30 33 36 39 43 47 51 54 60 64 70 76 81 85 88 90 88 88 90 94 102 110 109 107 103 98 92 89 87 92 108 102 102 104 97 94 93 90 86 82
20 23 29 33 37 41 47 52 57 61 64 67 73 80 86 89 93 95 96 98 99 99 96 89 91 98 106 105 102 102 99 96 97 103 115 104 104 104 103 97 97 95 89
27 30 35 38 41 47 53 58 63 67 72 77 83 87 89 91 91 92 92 93 95 99 101 102 102 96 95 100 103 101 96 87 82 87 100 92 86 96 101 103 106 100 100
33 34 39 43 47 52 58 62 65 72 78 84 88 89 90 91 91 91 91 94 97 100 100 99 97 92 83 77 80 92 91 89 83 80 86 82 77 66 70 86 100 102 104
36 38 43 49 56 61 63 65 70 76 82 87 91 93 95 95 94 93 88 87 92 93 96 96 94 94 92 79 79 77 79 91 97 88 89 87 87 72 70 72 77 81 96
41 44 47 55 61 63 64 68 75 82 87 91 92 93 95 96 95 89 75 76 80 83 79 79 79 75 76 78 81 78 83 82 78 82 93 101 95 87 78 79 77 81 93
46 48 53 60 62 64 67 73 79 84 88 90 92 93 96 95 88 81 71 70 75 78 76 73 72 71 65 64 67 72 76 80 88 94 94 103 106 109 98 98 97 89 84
51 53 58 60 63 66 72 78 82 85 88 88 91 93 92 90 78 72 66 68 70 71 70 67 66 68 63 57 63 73 80 84 78 72 78 87 96 103 101 102 106 87 99
52 55 58 60 62 68 74 79 82 84 87 89 90 88 84 81 71 66 56 61 67 70 68 71 69 65 59 57 63 73 85 88 87 90 94 94 92 89 81 83 99 99 104
53 55 56 56 63 71 77 78 80 83 86 87 87 85 79 72 69 64 54 56 65 72 78 74 74 67 63 63 63 71 81 79 82 85 92 95 97 97 93 98 86 97 105
52 52 52 59 65 70 74 71 72 75 80 81 83 83 77 73 69 69 56 54 58 67 75 82 88 77 71 73 77 85 88 89 92 83 84 90 90 89 84 80 83 92 96
51 50 56 63 67 67 67 67 71 70 73 78 78 81 83 81 80 74 64 60 65 71 79 81 78 77 76 78 80 85 82 87 96 101 104 105 99 100 93 88 94 101 103
48 52 59 66 67 62 62 62 66 66 69 72 74 80 81 81 75 72 75 81 81 78 79 81 83 74 76 77 82 83 84 89 91 97 99 97 91 86 85 81 85 84 101
49 54 60 64 62 62 59 57 60 61 59 59 60 63 67 69 68 65 68 72 72 74 75 80 80 71 71 72 71 68 68 75 86 93 92 91 88 83 80 76 76 79 86
51 54 58 58 57 58 61 61 44 52 51 50 39 40 50 51 55 61 64 66 64 60 61 63 62 60 64 68 71 75 75 75 76 77 84 81 79 73 76 80 80 81 82
50 53 54 53 54 55 54 56 60 39 43 45 42 48 44 45 52 56 58 57 60 51 49 52 56 60 64 66 68 72 77 79 81 75 67 62 63 70 72 79 85 91 69
46 49 50 49 50 50 49 48 47 50 49 49 45 49 50 51 48 53 53 56 53 53 57 59 60 61 63 65 68 71 74 76 70 56 49 45 48 54 65 74 73 56 59
42 45 46 46 46 45 44 43 42 43 45 46 48 43 45 45 52 51 51 56 62 64 64 64 62 62 63 64 68 69 66 66 63 50 46 50 55 59 62 61 59 52 47
41 44 43 43 41 40 39 40 40 40 42 42 42 46 49 54 55 55 53 54 57 60 62 64 65 64 65 66 68 67 65 61 57 56 53 50 48 48 52 53 50 48 49
41 42 43 40 38 38 37 36 37 38 40 38 37 39 41 43 48 50 52 51 52 55 58 60 62 64 65 68 68 66 62 59 54 51 46 46 45 45 42 41 42 42 45
40 41 41 38 36 36 34 35 35 36 37 39 37 34 37 39 43 46 48 48 48 48 51 55 60 63 64 64 68 69 64 59 55 51 47 44 41 36 32 28 25 25 30
40 42 40 38 37 37 35 33 35 35 37 36 38 40 40 41 43 44 46 47 47 47 47 48 54 60 61 61 62 68 65 59 53 47 43 40 37 32 27 21 14 10 11
41 42 40 38 39 39 39 36 36 36 39 40 40 41 42 42 43 43 43 44 44 44 45 46 48 53 58 59 61 64 67 56 47 42 38 33 30 26 21 15 11 7 5
42 41 41 41 41 40 40 39 39 39 41 42 42 41 41 41 41 40 40 41 41 42 44 45 44 47 54 55 56 57 61 58 51 43 37 32 28 25 22 19 16 16 15
39 39 40 41 40 40 40 39 38 38 40 39 40 39 39 39 39 37 37 37 38 39 42 43 43 39 45 52 52 51 51 54 52 47 43 39 36 34 30 27 25 24 22
Wind_Direction_500mb
358 344 334 327 322 320 319 316 314 316 317 317 317 316 316 314 313 311 309 310 309 308 307 305 302 300 296 293 290 287 286 285 285 288 289 290 289 289 291 291 290 286 279
316 324 321 317 315 315 318 319 320 320 320 319 318 317 316 315 313 311 308 305 300 297 295 295 296 298 297 297 293 288 284 282 282 285 287 285 286 287 286 287 288 286 284
301 311 320 315 312 314 316 317 316 315 315 315 315 315 314 313 312 311 310 308 307 305 301 295 290 290 292 294 295 295 293 287 282 281 283 283 282 283 285 283 283 283 283
294 296 308 312 309 308 309 310 310 311 312 313 313 313 313 312 312 310 309 306 304 302 299 297 297 293 287 287 290 291 292 291 289 286 285 285 283 281 278 280 281 282 283
281 286 298 306 307 305 305 306 307 310 311 312 312 312 312 312 312 312 309 305 302 299 295 292 288 282 282 282 282 284 286 285 283 281 283 285 281 279 274 280 277 280 279
272 285 295 303 305 304 304 305 307 310 312 313 314 315 314 314 314 312 310 306 301 297 294 293 288 285 280 281 277 277 274 275 277 278 281 279 279 277 278 275 273 275 277
273 280 283 294 300 302 303 306 309 312 314 314 314 314 314 314 314 316 310 302 300 298 296 295 294 292 291 287 282 277 272 266 267 272 273 272 279 277 275 276 275 272 269
267 275 286 296 300 302 306 310 313 314 315 315 315 315 315 317 318 315 310 304 299 298 299 298 297 296 294 293 293 292 288 283 274 265 267 270 273 275 275 272 265 264 265
269 279 291 299 302 305 310 313 315 315 315 316 316 316 316 318 319 315 312 307 303 303 306 306 306 307 301 293 291 290 290 288 288 280 274 273 271 271 269 272 270 268 264
272 285 296 301 303 310 313 315 317 317 316 316 316 317 319 320 319 319 313 308 306 307 306 310 309 298 297 293 289 288 288 289 290 287 284 280 274 269 269 263 264 262 260
281 292 298 301 308 312 313 317 318 317 316 316 316 319 322 323 325 327 314 308 306 308 307 301 301 301 295 292 288 285 284 293 291 285 284 283 280 276 274 271 272 263 256
288 296 299 305 308 312 314 316 314 315 316 317 319 321 324 328 330 331 316 309 306 301 301 305 306 302 292 291 288 286 286 285 284 281 278 276 275 275 273 271 270 267 261
293 296 302 306 311 314 315 316 316 319 319 320 322 323 328 333 331 329 324 315 311 305 302 302 301 299 297 294 292 292 288 284 283 280 276 275 275 278 275 272 270 267 269
290 297 304 308 311 313 316 318 318 322 322 323 327 328 324 320 321 326 328 324 317 313 310 310 310 301 296 297 299 299 292 289 281 277 275 275 275 273 273 272 271 274 263
290 299 305 308 310 313 315 319 322 324 326 323 316 316 314 316 322 320 317 316 316 314 311 300 301 306 310 313 314 314 311 301 290 284 277 274 272 273 272 272 270 266 266
293 300 303 306 311 314 316 316 321 321 328 329 329 317 317 317 322 321 321 319 317 315 308 309 312 318 321 323 325 324 322 319 309 290 284 279 274 269 273 277 273 268 260
292 299 303 308 311 312 314 316 319 324 329 338 349 343 335 329 330 332 329 329 324 329 329 329 331 332 331 331 331 332 330 328 319 306 286 277 274 276 279 281 280 275 260
294 300 304 306 306 308 312 316 321 326 332 333 345 347 344 342 342 340 342 341 344 352 351 348 344 341 339 337 338 338 338 335 326 311 297 282 275 278 282 284 293 269 249
295 299 300 299 300 305 311 315 317 321 327 331 336 338 337 342 357 350 353 359 0 359 357 355 352 348 346 345 344 341 341 340 339 325 310 295 287 285 290 290 296 293 286
293 294 294 295 299 304 308 312 315 319 324 332 341 341 340 353 350 351 358 1 2 0 359 358 358 356 354 352 348 344 342 343 343 341 335 325 316 308 301 299 295 294 290
288 291 291 292 296 300 305 309 313 318 321 329 338 340 346 338 345 349 353 358 360 359 358 358 359 360 359 360 354 348 346 344 344 342 339 334 325 314 310 302 293 286 286
285 286 285 287 290 294 300 305 308 313 317 321 329 335 338 340 343 347 350 351 355 357 358 359 1 3 0 2 1 357 350 348 347 344 343 343 340 335 328 321 313 298 276
283 282 281 282 286 290 294 298 302 306 308 314 320 325 331 335 338 342 344 346 351 353 355 358 0 3 3 4 7 4 357 352 350 348 346 348 348 348 345 337 325 294 249
280 278 279 282 283 284 286 290 294 299 302 307 312 317 321 326 330 334 338 341 345 350 353 354 358 2 3 6 11 7 6 0 360 2 360 359 1 1 2 10 27 46 115
276 276 279 282 282 283 284 286 290 294 298 303 307 311 315 320 325 330 334 337 342 348 352 355 357 360 2 5 13 11 11 12 14 14 16 19 23 30 38 49 63 79 92
274 275 279 280 281 282 285 288 291 295 298 302 306 310 314 318 324 329 332 337 341 347 351 353 355 354 1 4 11 11 17 16 21 27 34 39 43 48 51 58 67 76 81
Wind_Speed_850mb
9 15 20 23 26 29 30 33 36 38 42 47 51 55 59 63 68 75 82 89 96 101 101 102 101 95 92 87 81 80 83 81 93 103 99 98 95 92 90 83 79 76 76
16 20 25 30 33 36 39 43 47 51 54 60 64 70 76 81 85 88 90 88 88 90 94 102 110 109 107 103 98 92 89 87 92 108 102 102 104 97 94 93 90 86 82
20 23 29 33 37 41 47 52 57 61 64 67 73 80 86 89 93 95 96 98 99 99 96 89 91 98 106 105 102 102 99 96 97 103 115 104 104 104 103 97 97 95 89
27 30 35 38 41 47 53 58 63 67 72 77 83 87 89 91 91 92 92 93 95 99 101 102 102 96 95 100 103 101 96 87 82 87 100 92 86 96 101 103 106 100 100
33 34 39 43 47 52 58 62 65 72 78 84 88 89 90 91 91 91 91 94 97 100 100 99 97 92 83 77 80 92 91 89 83 80 86 82 77 66 70 86 100 102 104
36 38 43 49 56 61 63 65 70 76 82 87 91 93 95 95 94 93 88 87 92 93 96 96 94 94 92 79 79 77 79 91 97 88 89 87 87 72 70 72 77 81 96
41 44 47 55 61 63 64 68 75 82 87 91 92 93 95 96 95 89 75 76 80 83 79 79 79 75 76 78 81 78 83 82 78 82 93 101 95 87 78 79 77 81 93
46 48 53 60 62 64 67 73 79 84 88 90 92 93 96 95 88 81 71 70 75 78 76 73 72 71 65 64 67 72 76 80 88 94 94 103 106 109 98 98 97 89 84
51 53 58 60 63 66 72 78 82 85 88 88 91 93 92 90 78 72 66 68 70 71 70 67 66 68 63 57 63 73 80 84 78 72 78 87 96 103 101 102 106 87 99
52 55 58 60 62 68 74 79 82 84 87 89 90 88 84 81 71 66 56 61 67 70 68 71 69 65 59 57 63 73 85 88 87 90 94 94 92 89 81 83 99 99 104
53 55 56 56 63 71 77 78 80 83 86 87 87 85 79 72 69 64 54 56 65 72 78 74 74 67 63 63 63 71 81 79 82 85 92 95 97 97 93 98 86 97 105
52 52 52 59 65 70 74 71 72 75 80 81 83 83 77 73 69 69 56 54 58 67 75 82 88 77 71 73 77 85 88 89 92 83 84 90 90 89 84 80 83 92 96
51 50 56 63 67 67 67 67 71 70 73 78 78 81 83 81 80 74 64 60 65 71 79 81 78 77 76 78 80 85 82 87 96 101 104 105 99 100 93 88 94 101 103
48 52 59 66 67 62 62 62 66 66 69 72 74 80 81 81 75 72 75 81 81 78 79 81 83 74 76 77 82 83 84 89 91 97 99 97 91 86 85 81 85 84 101
49 54 60 64 62 62 59 57 60 61 59 59 60 63 67 69 68 65 68 72 72 74 75 80 80 71 71 72 71 68 68 75 86 93 92 91 88 83 80 76 76 79 86
51 54 58 58 57 58 61 61 44 52 51 50 39 40 50 51 55 61 64 66 64 60 61 63 62 60 64 68 71 75 75 75 76 77 84 81 79 73 76 80 80 81 82
50 53 54 53 54 55 54 56 60 39 43 45 42 48 44 45 52 56 58 57 60 51 49 52 56 60 64 66 68 72 77 79 81 75 67 62 63 70 72 79 85 91 69
46 49 50 49 50 50 49 48 47 50 49 49 45 49 50 51 48 53 53 56 53 53 57 59 60 61 63 65 68 71 74 76 70 56 49 45 48 54 65 74 73 56 59
42 45 46 46 46 45 44 43 42 43 45 46 48 43 45 45 52 51 51 56 62 64 64 64 62 62 63 64 68 69 66 66 63 50 46 50 55 59 62 61 59 52 47
41 44 43 43 41 40 39 40 40 40 42 42 42 46 49 54 55 55 53 54 57 60 62 64 65 64 65 66 68 67 65 61 57 56 53 50 48 48 52 53 50 48 49
41 42 43 40 38 38 37 36 37 38 40 38 37 39 41 43 48 50 52 51 52 55 58 60 62 64 65 68 68 66 62 59 54 51 46 46 45 45 42 41 42 42 45
40 41 41 38 36 36 34 35 35 36 37 39 37 34 37 39 43 46 48 48 48 48 51 55 60 63 64 64 68 69 64 59 55 51 47 44 41 36 32 28 25 25 30
40 42 40 38 37 37 35 33 35 35 37 36 38 40 40 41 43 44 46 47 47 47 47 48 54 60 61 61 62 68 65 59 53 47 43 40 37 32 27 21 14 10 11
41 42 40 38 39 39 39 36 36 36 39 40 40 41 42 42 43 43 43 44 44 44 45 46 48 53 58 59 61 64 67 56 47 42 38 33 30 26 21 15 11 7 5
42 41 41 41 41 40 40 39 39 39 41 42 42 41 41 41 41 40 40 41 41 42 44 45 44 47 54 55 56 57 61 58 51 43 37 32 28 25 22 19 16 16 15
39 39 40 41 40 40 40 39 38 38 40 39 40 39 39 39 39 37 37 37 38 39 42 43 43 39 45 52 52 51 51 54 52 47 43 39 36 34 30 27 25 24 22
Wind_Direction_850mb
358 344 334 327 322 320 319 316 314 316 317 317 317 316 316 314 313 311 309 310 309 308 307 305 302 300 296 293 290 287 286 285 285 288 289 290 289 289 291 291 290 286 279
316 324 321 317 315 315 318 319 320 320 320 319 318 317 316 315 313 311 308 305 300 297 295 295 296 298 297 297 293 288 284 282 282 285 287 285 286 287 286 287 288 286 284
301 311 320 315 312 314 316 317 316 315 315 315 315 315 314 313 312 311 310 308 307 305 301 295 290 290 292 294 295 295 293 287 282 281 283 283 282 283 285 283 283 283 283
294 296 308 312 309 308 309 310 310 311 312 313 313 313 313 312 312 310 309 306 304 302 299 297 297 293 287 287 290 291 292 291 289 286 285 285 283 281 278 280 281 282 283
281 286 298 306 307 305 305 306 307 310 311 312 312 312 312 312 312 312 309 305 302 299 295 292 288 282 282 282 282 284 286 285 283 281 283 285 281 279 274 280 277 280 279
272 285 295 303 305 304 304 305 307 310 312 313 314 315 314 314 314 312 310 306 301 297 294 293 288 285 280 281 277 277 274 275 277 278 281 279 279 277 278 275 273 275 277
273 280 283 294 300 302 303 306 309 312 314 314 314 314 314 314 314 316 310 302 300 298 296 295 294 292 291 287 282 277 272 266 267 272 273 272 279 277 275 276 275 272 269
267 275 286 296 300 302 306 310 313 314 315 315 315 315 315 317 318 315 310 304 299 298 299 298 297 296 294 293 293 292 288 283 274 265 267 270 273 275 275 272 265 264 265
269 279 291 299 302 305 310 313 315 315 315 316 316 316 316 318 319 315 312 307 303 303 306 306 306 307 301 293 291 290 290 288 288 280 274 273 271 271 269 272 270 268 264
272 285 296 301 303 310 313 315 317 317 316 316 316 317 319 320 319 319 313 308 306 307 306 310 309 298 297 293 289 288 288 289 290 287 284 280 274 269 269 263 264 262 260
281 292 298 301 308 312 313 317 318 317 316 316 316 319 322 323 325 327 314 308 306 308 307 301 301 301 295 292 288 285 284 293 291 285 284 283 280 276 274 271 272 263 256
288 296 299 305 308 312 314 316 314 315 316 317 319 321 324 328 330 331 316 309 306 301 301 305 306 302 292 291 288 286 286 285 284 281 278 276 275 275 273 271 270 267 261
293 296 302 306 311 314 315 316 316 319 319 320 322 323 328 333 331 329 324 315 311 305 302 302 301 299 297 294 292 292 288 284 283 280 276 275 275 278 275 272 270 267 269
290 297 304 308 311 313 316 318 318 322 322 323 327 328 324 320 321 326 328 324 317 313 310 310 310 301 296 297 299 299 292 289 281 277 275 275 275 273 273 272 271 274 263
290 299 305 308 310 313 315 319 322 324 326 323 316 316 314 316 322 320 317 316 316 314 311 300 301 306 310 313 314 314 311 301 290 284 277 274 272 273 272 272 270 266 266
293 300 303 306 311 314 316 316 321 321 328 329 329 317 317 317 322 321 321 319 317 315 308 309 312 318 321 323 325 324 322 319 309 290 284 279 274 269 273 277 273 268 260
292 299 303 308 311 312 314 316 319 324 329 338 349 343 335 329 330 332 329 329 324 329 329 329 331 332 331 331 331 332 330 328 319 306 286 277 274 276 279 281 280 275 260
294 300 304 306 306 308 312 316 321 326 332 333 345 347 344 342 342 340 342 341 344 352 351 348 344 341 339 337 338 338 338 335 326 311 297 282 275 278 282 284 293 269 249
295 299 300 299 300 305 311 315 317 321 327 331 336 338 337 342 357 350 353 359 0 359 357 355 352 348 346 345 344 341 341 340 339 325 310 295 287 285 290 290 296 293 286
293 294 294 295 299 304 308 312 315 319 324 332 341 341 340 353 350 351 358 1 2 0 359 358 358 356 354 352 348 344 342 343 343 341 335 325 316 308 301 299 295 294 290
288 291 291 292 296 300 305 309 313 318 321 329 338 340 346 338 345 349 353 358 360 359 358 358 359 360 359 360 354 348 346 344 344 342 339 334 325 314 310 302 293 286 286
285 286 285 287 290 294 300 305 308 313 317 321 329 335 338 340 343 347 350 351 355 357 358 359 1 3 0 2 1 357 350 348 347 344 343 343 340 335 328 321 313 298 276
283 282 281 282 286 290 294 298 302 306 308 314 320 325 331 335 338 342 344 346 351 353 355 358 0 3 3 4 7 4 357 352 350 348 346 348 348 348 345 337 325 294 249
280 278 279 282 283 284 286 290 294 299 302 307 312 317 321 326 330 334 338 341 345 350 353 354 358 2 3 6 11 7 6 0 360 2 360 359 1 1 2 10 27 46 115
276 276 279 282 282 283 284 286 290 294 298 303 307 311 315 320 325 330 334 337 342 348 352 355 357 360 2 5 13 11 11 12 14 14 16 19 23 30 38 49 63 79 92
274 275 279 280 281 282 285 288 291 295 298 302 306 310 314 318 324 329 332 337 341 347 351 353 355 354 1 4 11 11 17 16 21 27 34 39 43 48 51 58 67 76 81